• în România
  • Lista ţărilor
  • Pe 7 zile
  • Temperatura apei
  • Hartă satelitară
  • Meteo pe hartă
  • Widget-uri
  • user-avatar
    Intrare

    Meteo pe oră la Mendoza

    Astăzi, 25 Mai, Vineri

    Timp Temperatura Precipitaţii Vânt Presiune Umiditate
    00:00 +14°C° 0 mm 2 m/s 699 mmHg 55%
    01:00 +13°C° 0 mm 1 m/s 699 mmHg 56%
    02:00 +13°C° 0 mm 1 m/s 699 mmHg 58%
    03:00 +13°C° 0 mm 1 m/s 699 mmHg 59%
    04:00 +12°C° 0 mm 1 m/s 698 mmHg 60%
    05:00 +12°C° 0 mm 1 m/s 699 mmHg 60%
    06:00 +12°C° 0 mm 1 m/s 699 mmHg 60%
    07:00 +12°C° 0 mm 1 m/s 699 mmHg 60%
    08:00 +14°C° 0 mm 2 m/s 699 mmHg 54%
    09:00 +16°C° 0 mm 2 m/s 699 mmHg 47%
    10:00 +18°C° 0 mm 2 m/s 699 mmHg 41%
    11:00 +20°C° 0 mm 2 m/s 699 mmHg 38%
    12:00 +21°C° 0 mm 3 m/s 698 mmHg 34%
    13:00 +22°C° 0 mm 3 m/s 698 mmHg 31%
    14:00 +21°C° 0 mm 3 m/s 697 mmHg 32%
    15:00 +21°C° 0 mm 3 m/s 697 mmHg 33%
    16:00 +21°C° 0 mm 3 m/s 697 mmHg 35%
    17:00 +19°C° 0 mm 3 m/s 696 mmHg 38%
    18:00 +18°C° 0 mm 2 m/s 696 mmHg 41%
    19:00 +17°C° 0 mm 2 m/s 696 mmHg 44%
    20:00 +16°C° 0 mm 2 m/s 696 mmHg 43%
    21:00 +16°C° 0 mm 2 m/s 696 mmHg 43%
    22:00 +16°C° 0 mm 3 m/s 696 mmHg 43%
    23:00 +14°C° 0 mm 3 m/s 695 mmHg 44%

    Mâine, 26 Mai, Sâmbătă

    Timp Temperatura Precipitaţii Vânt Presiune Umiditate
    00:00 +14°C° 0 mm 3 m/s 695 mmHg 45%
    01:00 +13°C° 0 mm 3 m/s 694 mmHg 45%
    02:00 +13°C° 0 mm 3 m/s 694 mmHg 46%
    03:00 +12°C° 0 mm 3 m/s 694 mmHg 47%
    04:00 +12°C° 0 mm 3 m/s 694 mmHg 49%
    05:00 +12°C° 0 mm 3 m/s 694 mmHg 49%
    06:00 +12°C° 0 mm 3 m/s 694 mmHg 49%
    07:00 +12°C° 0 mm 3 m/s 694 mmHg 50%
    08:00 +14°C° 0 mm 3 m/s 695 mmHg 46%
    09:00 +17°C° 0 mm 3 m/s 695 mmHg 41%
    10:00 +19°C° 0 mm 3 m/s 695 mmHg 37%
    11:00 +20°C° 0 mm 3 m/s 695 mmHg 33%
    12:00 +21°C° 0 mm 3 m/s 695 mmHg 29%
    13:00 +22°C° 0 mm 3 m/s 694 mmHg 25%
    14:00 +22°C° 0 mm 3 m/s 695 mmHg 26%
    15:00 +23°C° 0 mm 2 m/s 695 mmHg 26%
    16:00 +21°C° 0 mm 2 m/s 695 mmHg 27%
    17:00 +20°C° 0 mm 3 m/s 696 mmHg 29%
    18:00 +19°C° 0 mm 4 m/s 697 mmHg 32%
    19:00 +18°C° 0 mm 4 m/s 698 mmHg 34%
    20:00 +17°C° 0 mm 4 m/s 698 mmHg 36%
    21:00 +15°C° 0 mm 4 m/s 698 mmHg 38%
    22:00 +14°C° 0 mm 4 m/s 699 mmHg 39%
    23:00 +13°C° 0 mm 4 m/s 699 mmHg 42%

    Poimâine, 27 Mai, Duminică

    Timp Temperatura Precipitaţii Vânt Presiune Umiditate
    00:00 +13°C° 0 mm 3 m/s 699 mmHg 45%
    01:00 +12°C° 0 mm 3 m/s 699 mmHg 48%
    02:00 +12°C° 0 mm 3 m/s 698 mmHg 49%
    03:00 +11°C° 0 mm 3 m/s 698 mmHg 51%
    04:00 +11°C° 0 mm 3 m/s 698 mmHg 53%
    05:00 +11°C° 0 mm 3 m/s 698 mmHg 53%
    06:00 +12°C° 0 mm 2 m/s 698 mmHg 54%
    07:00 +12°C° 0 mm 2 m/s 698 mmHg 54%
    08:00 +14°C° 0 mm 2 m/s 698 mmHg 51%
    09:00 +16°C° 0 mm 2 m/s 698 mmHg 47%
    10:00 +17°C° 0 mm 3 m/s 698 mmHg 43%
    11:00 +18°C° 0 mm 2 m/s 698 mmHg 43%
    12:00 +19°C° 0 mm 2 m/s 697 mmHg 42%
    13:00 +20°C° 0 mm 2 m/s 696 mmHg 42%
    14:00 +19°C° 0 mm 2 m/s 695 mmHg 43%
    15:00 +19°C° 0 mm 2 m/s 695 mmHg 44%
    16:00 +19°C° 0 mm 2 m/s 695 mmHg 46%
    17:00 +18°C° 0 mm 2 m/s 694 mmHg 49%
    18:00 +17°C° 0 mm 2 m/s 694 mmHg 53%
    19:00 +15°C° 0 mm 2 m/s 694 mmHg 56%
    20:00 +15°C° 0 mm 2 m/s 694 mmHg 55%
    21:00 +15°C° 0 mm 2 m/s 694 mmHg 55%
    22:00 +14°C° 0 mm 2 m/s 694 mmHg 54%
    23:00 +14°C° 0 mm 2 m/s 693 mmHg 54%

    28 Mai, Luni

    Timp Temperatura Precipitaţii Vânt Presiune Umiditate
    00:00 +14°C° 0 mm 2 m/s 693 mmHg 53%
    01:00 +14°C° 0 mm 2 m/s 692 mmHg 53%
    02:00 +13°C° 0 mm 2 m/s 692 mmHg 53%
    03:00 +13°C° 0 mm 2 m/s 691 mmHg 53%
    04:00 +12°C° 0 mm 3 m/s 691 mmHg 53%
    05:00 +12°C° 0 mm 3 m/s 691 mmHg 53%
    06:00 +12°C° 0 mm 3 m/s 691 mmHg 52%
    07:00 +12°C° 0 mm 3 m/s 691 mmHg 52%
    08:00 +14°C° 0 mm 3 m/s 691 mmHg 47%
    09:00 +18°C° 0 mm 3 m/s 691 mmHg 41%
    10:00 +20°C° 0 mm 4 m/s 691 mmHg 36%
    11:00 +22°C° 0 mm 5 m/s 690 mmHg 31%
    12:00 +23°C° 0 mm 6 m/s 690 mmHg 26%
    13:00 +26°C° 0 mm 6 m/s 690 mmHg 22%
    14:00 +24°C° 0 mm 7 m/s 690 mmHg 21%
    15:00 +24°C° 0 mm 8 m/s 690 mmHg 20%
    16:00 +24°C° 0 mm 9 m/s 690 mmHg 19%
    17:00 +23°C° 0,1 mm 9 m/s 690 mmHg 20%
    18:00 +22°C° 0,1 mm 9 m/s 691 mmHg 20%
    19:00 +21°C° 0,1 mm 10 m/s 691 mmHg 20%
    20:00 +21°C° 0,1 mm 11 m/s 691 mmHg 21%
    21:00 +19°C° 0,1 mm 12 m/s 691 mmHg 21%
    22:00 +19°C° 0,1 mm 13 m/s 692 mmHg 21%
    23:00 +18°C° 0,1 mm 11 m/s 692 mmHg 22%

    29 Mai, Marţi

    Timp Temperatura Precipitaţii Vânt Presiune Umiditate
    00:00 +17°C° 0,1 mm 9 m/s 691 mmHg 24%
    01:00 +16°C° 0,1 mm 8 m/s 691 mmHg 25%
    02:00 +15°C° 0,1 mm 6 m/s 691 mmHg 26%
    03:00 +15°C° 0,1 mm 4 m/s 691 mmHg 27%
    04:00 +15°C° 0,1 mm 2 m/s 691 mmHg 29%
    05:00 +14°C° 0 mm 3 m/s 692 mmHg 29%
    06:00 +14°C° 0 mm 4 m/s 693 mmHg 29%
    07:00 +14°C° 0 mm 4 m/s 694 mmHg 29%
    08:00 +15°C° 0 mm 5 m/s 695 mmHg 28%
    09:00 +17°C° 0 mm 5 m/s 696 mmHg 26%
    10:00 +20°C° 0 mm 6 m/s 697 mmHg 25%
    11:00 +20°C° 0 mm 7 m/s 697 mmHg 30%
    12:00 +20°C° 0 mm 7 m/s 696 mmHg 35%
    13:00 +18°C° 0 mm 8 m/s 696 mmHg 40%
    14:00 +18°C° 0 mm 7 m/s 696 mmHg 41%
    15:00 +17°C° 0 mm 6 m/s 697 mmHg 41%
    16:00 +16°C° 0 mm 5 m/s 697 mmHg 41%
    17:00 +15°C° 0 mm 4 m/s 697 mmHg 42%
    18:00 +14°C° 0 mm 4 m/s 698 mmHg 42%
    19:00 +13°C° 0 mm 3 m/s 699 mmHg 43%
    20:00 +12°C° 0 mm 3 m/s 699 mmHg 44%
    21:00 +12°C° 0 mm 4 m/s 699 mmHg 45%
    22:00 +11°C° 0 mm 4 m/s 699 mmHg 46%
    23:00 +11°C° 0 mm 4 m/s 699 mmHg 47%

    30 Mai, Miercuri

    Timp Temperatura Precipitaţii Vânt Presiune Umiditate
    00:00 +9°C° 0 mm 5 m/s 698 mmHg 48%
    01:00 +9°C° 0 mm 5 m/s 698 mmHg 49%
    02:00 +8°C° 0 mm 5 m/s 698 mmHg 49%
    03:00 +8°C° 0 mm 5 m/s 697 mmHg 49%
    04:00 +8°C° 0 mm 5 m/s 697 mmHg 49%
    05:00 +8°C° 0 mm 4 m/s 697 mmHg 49%
    06:00 +7°C° 0 mm 4 m/s 697 mmHg 48%
    07:00 +7°C° 0 mm 4 m/s 697 mmHg 47%
    08:00 +10°C° 0 mm 4 m/s 697 mmHg 43%
    09:00 +12°C° 0 mm 3 m/s 697 mmHg 38%
    10:00 +14°C° 0 mm 3 m/s 697 mmHg 33%
    11:00 +16°C° 0 mm 3 m/s 696 mmHg 30%
    12:00 +17°C° 0 mm 3 m/s 696 mmHg 28%
    13:00 +18°C° 0 mm 3 m/s 695 mmHg 25%
    14:00 +17°C° 0 mm 3 m/s 695 mmHg 26%
    15:00 +17°C° 0 mm 2 m/s 696 mmHg 27%
    16:00 +17°C° 0 mm 2 m/s 696 mmHg 28%
    17:00 +15°C° 0 mm 2 m/s 696 mmHg 31%
    18:00 +14°C° 0 mm 2 m/s 697 mmHg 33%
    19:00 +12°C° 0 mm 2 m/s 697 mmHg 36%
    20:00 +11°C° 0 mm 3 m/s 698 mmHg 35%
    21:00 +11°C° 0 mm 4 m/s 698 mmHg 35%
    22:00 +10°C° 0 mm 4 m/s 699 mmHg 35%
    23:00 +8°C° 0 mm 5 m/s 699 mmHg 40%
    Arată mai mult